Powrót do katalogu

STARLINK-31729

AktywnyŁącznośćVLEO
NORAD 59610·PAYLOAD·🇺🇸 United States

Wystrzelony Apr 28, 2024 z Cape Canaveral Space Force Station

Loading…

Następne Przeloty (najbliższe 24 godziny)

TLE

ŚwieżeSource: CelesTrak SupGP

Epoka: Sep 14, 2026, 20:53 UTC

1 59610C 24080K   26257.87062500  .00054636  00000+0  19761-2 0  2571
2 59610  43.0046  46.2971 0001686 285.5955  37.6551 15.27596781    18

Śledź STARLINK-31729 w czasie rzeczywistym z AllMySat

Download on the App Store